Rionegro, Colombia

7:51 PM -05 on March 30, 2017 (GMT -0500)
Jose Maria Cordova

Weather History for SKRG - January, 2013

Change the Weather History Date:

Sunday, January 6, 2013

  Actual Average Record
Temperature  
Mean Temperature 62 °F -  
Max Temperature 72 °F 68 °F 75 °F (1998)
Min Temperature 53 °F 53 °F 46 °F (2015)
Degree Days  
Heating Degree Days 2    
Growing Degree Days 12 (Base 50)    
Moisture  
Dew Point 55 °F    
Average Humidity 76    
Maximum Humidity 100    
Minimum Humidity 37    
Precipitation  
Precipitation 0.00 in - - ()
Sea Level Pressure  
Sea Level Pressure 30.23 in    
Wind  
Wind Speed 3 mph ()    
Max Wind Speed 15 mph    
Max Gust Speed -    
Visibility 6.1 miles    
Events Fog    
Averages and records for this station are not official NWS values.
T = Trace of Precipitation, MM = Missing Value Source: Averaged Metar Reports

Daily Weather History Graph

Daily Weather History Graph

Search for Another Location

Airport or City:

Trip Planner

Search our weather history database for the weather conditions in past years. The results will help you decide how hot, cold, wet, or windy it might be!

Date:

Astronomy

Jan. 06, 2013 Rise Set
Actual Time 6:14 AM -05 6:01 PM -05
Civil Twilight 5:51 AM -05 6:23 PM -05
Nautical Twilight 5:25 AM -05 6:49 PM -05
Astronomical Twilight 4:59 AM -05 7:15 PM -05
Moon 12:52 AM -05 (1/6) 1:05 PM -05 (1/6)
Length of Visible Light 12h 31m
Length of Day
11h 47m
Waning Crescent, 33% of the Moon is Illuminated
Jan 6
Waning Crescent
Jan 11
New
Jan 18
First Quarter
Jan 26
Full
Feb 3
Last Quarter

Hourly Weather History & Observations

Time (-05) Temp. Dew Point Humidity Pressure Visibility Wind Dir Wind Speed Gust Speed Precip Events Conditions
12:00 AM 60.8 °F 59.0 °F 94% 30.27 in 4.3 mi Calm Calm - N/A Fog Fog
1:00 AM 60 °F 59 °F 94%  in 4 mi Calm Calm - - Fog Light Fog
1:00 AM 59.0 °F 59.0 °F 100% 30.26 in 4.3 mi Calm Calm - N/A Fog Fog
2:00 AM 57.2 °F 57.2 °F 100% 30.22 in 3.7 mi Calm Calm - N/A Fog Fog
3:00 AM 57.2 °F 57.2 °F 100% 30.20 in 3.1 mi Calm Calm - N/A Fog Patches of Fog
4:00 AM 58 °F 57 °F 95%  in 4 mi Calm Calm - - Fog Patches of Fog
4:00 AM 59.0 °F 57.2 °F 94% 30.22 in 3.7 mi Calm Calm - N/A Fog Fog
5:00 AM 57.2 °F 55.4 °F 94% 30.22 in 4.3 mi Calm Calm - N/A Fog Fog
6:00 AM 55.4 °F 55.4 °F 100% 30.23 in 5.0 mi Calm Calm - N/A Fog Fog
7:00 AM 54 °F 53 °F 93%  in 5 mi Calm Calm - - Fog Patches of Fog
7:00 AM 53.6 °F 51.8 °F 94% 30.24 in 5.0 mi Calm Calm - N/A Fog Fog
8:00 AM 59.0 °F 55.4 °F 88% 30.28 in 6.2 mi Calm Calm - N/A Fog Shallow Fog
9:00 AM 64.4 °F 53.6 °F 68% 30.28 in 6.2 mi ENE 4.6 mph - N/A   Partly Cloudy
10:00 AM 63 °F 53 °F 62%  in 9 mi ESE 6.7 mph - -   Partly Cloudy
10:00 AM 62.6 °F 53.6 °F 72% 30.28 in 6.2 mi ESE 5.8 mph - N/A   Scattered Clouds
11:00 AM 62.6 °F 55.4 °F 77% 30.28 in 6.2 mi East 5.8 mph - N/A   Scattered Clouds
12:00 PM 69.8 °F 51.8 °F 53% 30.24 in 6.2 mi ESE 15.0 mph - N/A   Scattered Clouds
1:00 PM 71 °F 52 °F 40%  in 12 mi East 13.4 mph - -   Haze
1:00 PM 71.6 °F 51.8 °F 50% 30.23 in 6.2 mi East 13.8 mph - N/A   Partly Cloudy
2:00 PM 71.6 °F 51.8 °F 50% 30.20 in 6.2 mi East 12.7 mph - N/A   Partly Cloudy
3:00 PM 71.6 °F 51.8 °F 50% 30.17 in 6.2 mi East 10.4 mph - N/A   Partly Cloudy
4:00 PM 72 °F 51 °F 37%  in 12 mi East 8.9 mph - -   Haze
4:00 PM 71.6 °F 51.8 °F 50% 30.17 in 6.2 mi East 8.1 mph - N/A   Partly Cloudy
5:00 PM 71.6 °F 48.2 °F 43% 30.17 in 6.2 mi East 8.1 mph - N/A   Partly Cloudy
6:00 PM 68.0 °F 50.0 °F 52% 30.18 in 6.2 mi ENE 8.1 mph - N/A   Scattered Clouds
7:00 PM 63 °F 55 °F 69%  in 9 mi Calm Calm - -   Haze
7:00 PM 62.6 °F 55.4 °F 77% 30.21 in 6.2 mi Calm Calm - N/A   Scattered Clouds
8:00 PM 60.8 °F 55.4 °F 82% 30.24 in 6.2 mi North 4.6 mph - N/A   Scattered Clouds
9:00 PM 60.8 °F 55.4 °F 82% 30.25 in 6.2 mi Calm Calm - N/A   Scattered Clouds
10:00 PM 61 °F 58 °F 88%  in 6 mi NNE 4.5 mph - -   Haze
10:00 PM 60.8 °F 59.0 °F 94% 30.28 in 6.2 mi NNE 4.6 mph - N/A   Scattered Clouds
11:00 PM 60.8 °F 59.0 °F 94% 30.26 in 6.2 mi Calm Calm - N/A   Scattered Clouds